OBJECT B, 57425

Orbit data source: Space-Track

You're viewing an Uncataloged Satellite

Recently launched and/or uncataloged satellites may have evolving metadata. Metadata may include but not limited to: Owner, Maufacturer, Bus, Motor, and Mission.

OBJECT B, 57425 is a satellite owned by Sixiang Aishu (CN) in SSO that was launched on Sun, 23 Jul 2023 UTC via a CHANG ZHENG 2D launch vehicle from the Taiyaun Space Center, China (TSC). Unknown objects in Earth's orbit typically refer to objects detected orbiting the Earth but have not yet been identified or cataloged. These objects could be anything from previously untracked satellites, spent rocket stages, debris from satellite collisions, or even natural meteoroids temporarily captured by Earth's gravity.

Loading next visibility...
Identifier
57425, 2023-104B
Orbit
SSO
Last TLE update
9 hours ago
Origin
Flag of CNSXAK (CN / PRC)
Manufacturer
Yinhe
Mission
Operational Commercial Imaging
Bus & Motor
AS, Unknown motor
Mass
~100 kg wet, ~100 kg dry
Launch date (UTC)
2023-07-23 (2 years ago)
Launch vehicle
CHANG ZHENG 2D
Launch site
Taiyaun Space Center, China (TSC)
Object type
Unknown
Shape & HBR
Box + 2 Pan, 0.8 m
Radar Cross Section
0.363 m², Medium (>0.1 m² and < 1m²)

Expand to show TLE details & history

TLE from 9 hours ago
0 OBJECT B
1 57425U 23104B   25199.60286821  .00022653  00000-0  36454-3 0  9995
2 57425  97.3045 274.6009 0007435 199.6957 160.4010 15.52956571111412
Epoch: 2025-07-18T14:28Z
TLE epoch observation values (Epoch: 2025-07-18T14:28:07.813Z)
Latitude
-0.00003°
Longitude
120.91639°
Altitude
415.992 km
Speed
7.659 km/s
True Right ascension
18h 18m 24s
True Declination
0° 00' 00"
Sunlit
Object was in full shadow at epoch
Visualization orbit readout
Latitude
-14.29283°
Longitude
-60.58127°
Altitude
409.09 km
Speed
7.667 km/s
Apparent Right ascension
03h 37m 45s
Apparent Declination
-36° 19' 22"
Sunlit
Object is in daylight
Visualization observer readout
Local Sidereal Time
11:49:38
Azimuth
255.646° W
Elevation
-45.755°
Doppler factor
1
Orbital elements
Apogee altitude
410.06 km
Perigee altitude
399.974 km
Semi-major axis
6,783.154 km
Eccentricity
0.00074
Inclination
97.3045°
RAAN
274.6009°
Arg. of periapsis
199.6957°
True anomaly
160.42955°
Mean anomaly
160.401°
Eccentric anomaly
160.41528°
Mean motion
3.88504 °/min
Orbital period
92.66 mins
BSTAR
0.00036454
Loading maneuver chart data...
Loading SW <> Apogee altitude chart data...
Loading historical data...
Loading historical data...
Loading historical data...
Loading historical data...
Loading historical data...
Loading historical data...
Loading historical data...
Other satellites on launch #104 in the year 2023 (2023-07-23 UTC)
|